Year,Month,Day,Hour,Minute,Value (Times are PST for temperature in C)
2013,12,11,00,00,1.30
2013,12,11,00,01,1.30
2013,12,11,00,02,1.30
2013,12,11,00,03,1.30
2013,12,11,00,04,1.30
2013,12,11,00,05,1.30
2013,12,11,00,06,1.30
2013,12,11,00,07,1.30
2013,12,11,00,08,1.30
2013,12,11,00,09,1.30
2013,12,11,00,10,1.30
2013,12,11,00,11,1.30
2013,12,11,00,12,1.30
2013,12,11,00,13,1.40
2013,12,11,00,14,1.40
2013,12,11,00,15,1.40
2013,12,11,00,16,1.40
2013,12,11,00,17,1.40
2013,12,11,00,18,1.40
2013,12,11,00,19,1.50
2013,12,11,00,20,1.50
2013,12,11,00,21,1.50
2013,12,11,00,22,1.50
2013,12,11,00,23,1.50
2013,12,11,00,24,1.50
2013,12,11,00,25,1.50
2013,12,11,00,26,1.50
2013,12,11,00,27,1.50
2013,12,11,00,28,1.60
2013,12,11,00,29,1.60
2013,12,11,00,30,1.60
2013,12,11,00,31,1.60
2013,12,11,00,32,1.60
2013,12,11,00,33,1.60
2013,12,11,00,34,1.60
2013,12,11,00,35,1.60
2013,12,11,00,36,1.60
2013,12,11,00,37,1.60
2013,12,11,00,38,1.60
2013,12,11,00,39,1.70
2013,12,11,00,40,1.70
2013,12,11,00,41,1.70
2013,12,11,00,42,1.70
2013,12,11,00,43,1.80
2013,12,11,00,44,1.80
2013,12,11,00,45,1.80
2013,12,11,00,46,1.80
2013,12,11,00,47,1.80
2013,12,11,00,48,1.80
2013,12,11,00,49,1.80
2013,12,11,00,50,1.80
2013,12,11,00,51,1.90
2013,12,11,00,52,1.90
2013,12,11,00,53,1.90
2013,12,11,00,54,1.80
2013,12,11,00,55,1.80
2013,12,11,00,56,1.80
2013,12,11,00,57,1.80
2013,12,11,00,58,1.80
2013,12,11,00,59,1.80
2013,12,11,01,00,1.80
2013,12,11,01,01,1.80
2013,12,11,01,02,1.80
2013,12,11,01,03,1.80
2013,12,11,01,04,1.80
2013,12,11,01,05,1.90
2013,12,11,01,06,1.90
2013,12,11,01,07,1.90
2013,12,11,01,08,1.90
2013,12,11,01,09,1.90
2013,12,11,01,10,1.90
2013,12,11,01,11,1.90
2013,12,11,01,12,1.90
2013,12,11,01,13,1.90
2013,12,11,01,14,1.90
2013,12,11,01,15,1.90
2013,12,11,01,16,1.90
2013,12,11,01,17,1.90
2013,12,11,01,18,1.90
2013,12,11,01,19,1.90
2013,12,11,01,20,1.90
2013,12,11,01,21,1.90
2013,12,11,01,22,1.90
2013,12,11,01,23,1.90
2013,12,11,01,24,1.90
2013,12,11,01,25,1.90
2013,12,11,01,26,1.90
2013,12,11,01,27,1.90
2013,12,11,01,28,1.90
2013,12,11,01,29,1.90
2013,12,11,01,30,1.90
2013,12,11,01,31,1.90
2013,12,11,01,32,1.90
2013,12,11,01,33,1.90
2013,12,11,01,34,1.90
2013,12,11,01,35,1.90
2013,12,11,01,36,2.00
2013,12,11,01,37,1.90
2013,12,11,01,38,1.90
2013,12,11,01,39,1.90
2013,12,11,01,40,1.90
2013,12,11,01,41,2.00
2013,12,11,01,42,2.00
2013,12,11,01,43,1.90
2013,12,11,01,44,1.90
2013,12,11,01,45,2.00
2013,12,11,01,46,2.00
2013,12,11,01,47,2.00
2013,12,11,01,48,2.00
2013,12,11,01,49,2.00
2013,12,11,01,50,2.00
2013,12,11,01,51,2.10
2013,12,11,01,52,2.10
2013,12,11,01,53,2.10
2013,12,11,01,54,2.10
2013,12,11,01,55,2.10
2013,12,11,01,56,2.10
2013,12,11,01,57,2.10
2013,12,11,01,58,2.10
2013,12,11,01,59,2.00
2013,12,11,02,00,2.00
2013,12,11,02,01,2.00
2013,12,11,02,02,2.00
2013,12,11,02,03,2.00
2013,12,11,02,04,2.00
2013,12,11,02,05,2.00
2013,12,11,02,06,2.00
2013,12,11,02,07,2.10
2013,12,11,02,08,2.00
2013,12,11,02,09,2.00
2013,12,11,02,10,2.00
2013,12,11,02,11,2.00
2013,12,11,02,12,2.00
2013,12,11,02,13,2.10
2013,12,11,02,14,2.10
2013,12,11,02,15,2.10
2013,12,11,02,16,2.10
2013,12,11,02,17,2.10
2013,12,11,02,18,2.10
2013,12,11,02,19,2.00
2013,12,11,02,20,2.00
2013,12,11,02,21,2.00
2013,12,11,02,22,2.00
2013,12,11,02,23,1.90
2013,12,11,02,24,1.90
2013,12,11,02,25,1.90
2013,12,11,02,26,1.90
2013,12,11,02,27,1.90
2013,12,11,02,28,1.80
2013,12,11,02,29,1.90
2013,12,11,02,30,1.80
2013,12,11,02,31,1.80
2013,12,11,02,32,1.80
2013,12,11,02,33,1.80
2013,12,11,02,34,1.80
2013,12,11,02,35,1.80
2013,12,11,02,36,1.80
2013,12,11,02,37,1.80
2013,12,11,02,38,1.80
2013,12,11,02,39,1.80
2013,12,11,02,40,1.80
2013,12,11,02,41,1.80
2013,12,11,02,42,1.80
2013,12,11,02,43,1.80
2013,12,11,02,44,1.80
2013,12,11,02,45,1.80
2013,12,11,02,46,1.80
2013,12,11,02,47,1.80
2013,12,11,02,48,1.80
2013,12,11,02,49,1.80
2013,12,11,02,50,1.80
2013,12,11,02,51,1.80
2013,12,11,02,52,1.80
2013,12,11,02,53,1.90
2013,12,11,02,54,1.90
2013,12,11,02,55,1.90
2013,12,11,02,56,1.90
2013,12,11,02,57,1.90
2013,12,11,02,58,1.90
2013,12,11,02,59,1.90
2013,12,11,03,00,1.90
2013,12,11,03,01,1.90
2013,12,11,03,02,1.90
2013,12,11,03,03,1.90
2013,12,11,03,04,1.90
2013,12,11,03,05,1.90
2013,12,11,03,06,1.90
2013,12,11,03,07,1.90
2013,12,11,03,08,1.90
2013,12,11,03,09,1.90
2013,12,11,03,10,1.90
2013,12,11,03,11,1.90
2013,12,11,03,12,1.90
2013,12,11,03,13,1.90
2013,12,11,03,14,1.90
2013,12,11,03,15,1.90
2013,12,11,03,16,1.90
2013,12,11,03,17,1.90
2013,12,11,03,18,1.90
2013,12,11,03,19,1.90
2013,12,11,03,20,1.90
2013,12,11,03,21,1.90
2013,12,11,03,22,1.90
2013,12,11,03,23,1.90
2013,12,11,03,24,1.90
2013,12,11,03,25,1.90
2013,12,11,03,26,1.90
2013,12,11,03,27,1.90
2013,12,11,03,28,2.00
2013,12,11,03,29,2.00
2013,12,11,03,30,2.00
2013,12,11,03,31,2.00
2013,12,11,03,32,2.10
2013,12,11,03,33,2.10
2013,12,11,03,34,2.10
2013,12,11,03,35,2.10
2013,12,11,03,36,2.10
2013,12,11,03,37,2.10
2013,12,11,03,38,2.10
2013,12,11,03,39,2.10
2013,12,11,03,40,2.10
2013,12,11,03,41,2.00
2013,12,11,03,42,2.00
2013,12,11,03,43,2.00
2013,12,11,03,44,2.00
2013,12,11,03,45,2.00
2013,12,11,03,46,2.00
2013,12,11,03,47,2.00
2013,12,11,03,48,2.00
2013,12,11,03,49,2.10
2013,12,11,03,50,2.10
2013,12,11,03,51,2.10
2013,12,11,03,52,2.10
2013,12,11,03,53,2.10
2013,12,11,03,54,2.00
2013,12,11,03,55,2.00
2013,12,11,03,56,2.00
2013,12,11,03,57,2.00
2013,12,11,03,58,2.00
2013,12,11,03,59,1.90
2013,12,11,04,00,1.90
2013,12,11,04,01,1.90
2013,12,11,04,02,1.90
2013,12,11,04,03,1.90
2013,12,11,04,04,1.90
2013,12,11,04,05,1.90
2013,12,11,04,06,1.90
2013,12,11,04,07,1.90
2013,12,11,04,08,1.90
2013,12,11,04,09,1.90
2013,12,11,04,10,1.90
2013,12,11,04,11,1.90
2013,12,11,04,12,1.90
2013,12,11,04,13,1.90
2013,12,11,04,14,1.90
2013,12,11,04,15,1.90
2013,12,11,04,16,1.90
2013,12,11,04,17,1.90
2013,12,11,04,18,1.90
2013,12,11,04,19,1.90
2013,12,11,04,20,1.90
2013,12,11,04,21,1.90
2013,12,11,04,22,1.90
2013,12,11,04,23,1.90
2013,12,11,04,24,2.00
2013,12,11,04,25,2.00
2013,12,11,04,26,2.00
2013,12,11,04,27,2.00
2013,12,11,04,28,2.00
2013,12,11,04,29,2.00
2013,12,11,04,30,1.90
2013,12,11,04,31,1.90
2013,12,11,04,32,1.90
2013,12,11,04,33,1.90
2013,12,11,04,34,1.90
2013,12,11,04,35,1.90
2013,12,11,04,36,1.90
2013,12,11,04,37,1.90
2013,12,11,04,38,1.90
2013,12,11,04,39,1.90
2013,12,11,04,40,2.00
2013,12,11,04,41,1.90
2013,12,11,04,42,1.90
2013,12,11,04,43,1.90
2013,12,11,04,44,1.90
2013,12,11,04,45,1.90
2013,12,11,04,46,1.90
2013,12,11,04,47,1.90
2013,12,11,04,48,1.80
2013,12,11,04,49,1.80
2013,12,11,04,50,1.80
2013,12,11,04,51,1.80
2013,12,11,04,52,1.80
2013,12,11,04,53,1.80
2013,12,11,04,54,1.80
2013,12,11,04,55,1.80
2013,12,11,04,56,1.80
2013,12,11,04,57,1.90
2013,12,11,04,58,1.90
2013,12,11,04,59,1.90
2013,12,11,05,00,1.90
2013,12,11,05,01,1.90
2013,12,11,05,02,1.90
2013,12,11,05,03,2.00
2013,12,11,05,04,2.00
2013,12,11,05,05,2.00
2013,12,11,05,06,2.00
2013,12,11,05,07,2.00
2013,12,11,05,08,2.00
2013,12,11,05,09,2.00
2013,12,11,05,10,2.00
2013,12,11,05,11,2.00
2013,12,11,05,12,2.00
2013,12,11,05,13,2.00
2013,12,11,05,14,2.00
2013,12,11,05,15,2.00
2013,12,11,05,16,2.00
2013,12,11,05,17,2.00
2013,12,11,05,18,2.00
2013,12,11,05,19,2.00
2013,12,11,05,20,2.00
2013,12,11,05,21,2.00
2013,12,11,05,22,2.00
2013,12,11,05,23,2.00
2013,12,11,05,24,2.10
2013,12,11,05,25,2.10
2013,12,11,05,26,2.10
2013,12,11,05,27,2.10
2013,12,11,05,28,2.10
2013,12,11,05,29,2.10
2013,12,11,05,30,2.10
2013,12,11,05,31,2.00
2013,12,11,05,32,2.00
2013,12,11,05,33,2.00
2013,12,11,05,34,2.00
2013,12,11,05,35,2.10
2013,12,11,05,36,2.10
2013,12,11,05,37,2.10
2013,12,11,05,38,2.10
2013,12,11,05,39,2.10
2013,12,11,05,40,2.10
2013,12,11,05,41,2.10
2013,12,11,05,42,2.10
2013,12,11,05,43,2.10
2013,12,11,05,44,2.10
2013,12,11,05,45,2.10
2013,12,11,05,46,2.10
2013,12,11,05,47,2.10
2013,12,11,05,48,2.10
2013,12,11,05,49,2.10
2013,12,11,05,50,2.10
2013,12,11,05,51,2.10
2013,12,11,05,52,2.10
2013,12,11,05,53,2.10
2013,12,11,05,54,2.10
2013,12,11,05,55,2.10
2013,12,11,05,56,2.10
2013,12,11,05,57,2.10
2013,12,11,05,58,2.10
2013,12,11,05,59,2.10
2013,12,11,06,00,2.10
2013,12,11,06,01,2.10
2013,12,11,06,02,2.10
2013,12,11,06,03,2.10
2013,12,11,06,04,2.10
2013,12,11,06,05,2.10
2013,12,11,06,06,2.10
2013,12,11,06,07,2.10
2013,12,11,06,08,2.10
2013,12,11,06,09,2.10
2013,12,11,06,10,2.10
2013,12,11,06,11,2.10
2013,12,11,06,12,2.10
2013,12,11,06,13,2.00
2013,12,11,06,14,2.00
2013,12,11,06,15,2.00
2013,12,11,06,16,2.00
2013,12,11,06,17,2.00
2013,12,11,06,18,2.00
2013,12,11,06,19,2.00
2013,12,11,06,20,2.00
2013,12,11,06,21,2.00
2013,12,11,06,22,2.00
2013,12,11,06,23,2.00
2013,12,11,06,24,2.00
2013,12,11,06,25,2.00
2013,12,11,06,26,2.00
2013,12,11,06,27,1.90
2013,12,11,06,28,1.90
2013,12,11,06,29,1.90
2013,12,11,06,30,1.90
2013,12,11,06,31,1.90
2013,12,11,06,32,1.90
2013,12,11,06,33,1.90
2013,12,11,06,34,1.90
2013,12,11,06,35,1.90
2013,12,11,06,36,1.90
2013,12,11,06,37,1.90
2013,12,11,06,38,1.90
2013,12,11,06,39,1.90
2013,12,11,06,40,1.90
2013,12,11,06,41,1.90
2013,12,11,06,42,1.90
2013,12,11,06,43,2.00
2013,12,11,06,44,2.00
2013,12,11,06,45,2.00
2013,12,11,06,46,2.00
2013,12,11,06,47,2.00
2013,12,11,06,48,2.00
2013,12,11,06,49,1.90
2013,12,11,06,50,1.90
2013,12,11,06,51,1.90
2013,12,11,06,52,1.90
2013,12,11,06,53,1.90
2013,12,11,06,54,1.90
2013,12,11,06,55,1.90
2013,12,11,06,56,1.90
2013,12,11,06,57,1.90
2013,12,11,06,58,2.00
2013,12,11,06,59,2.00
2013,12,11,07,00,2.00
2013,12,11,07,01,2.00
2013,12,11,07,02,2.00
2013,12,11,07,03,2.00
2013,12,11,07,04,2.00
2013,12,11,07,05,2.00
2013,12,11,07,06,2.00
2013,12,11,07,07,1.90
2013,12,11,07,08,2.00
2013,12,11,07,09,2.00
2013,12,11,07,10,2.00
2013,12,11,07,11,1.90
2013,12,11,07,12,1.90
2013,12,11,07,13,1.90
2013,12,11,07,14,1.90
2013,12,11,07,15,1.90
2013,12,11,07,16,1.80
2013,12,11,07,17,1.80
2013,12,11,07,18,1.80
2013,12,11,07,19,1.80
2013,12,11,07,20,1.70
2013,12,11,07,21,1.70
2013,12,11,07,22,1.70
2013,12,11,07,23,1.70
2013,12,11,07,24,1.60
2013,12,11,07,25,1.60
2013,12,11,07,26,1.50
2013,12,11,07,27,1.50
2013,12,11,07,28,1.50
2013,12,11,07,29,1.40
2013,12,11,07,30,1.40
2013,12,11,07,31,1.40
2013,12,11,07,32,1.40
2013,12,11,07,33,1.40
2013,12,11,07,34,1.40
2013,12,11,07,35,1.40
2013,12,11,07,36,1.40
2013,12,11,07,37,1.50
2013,12,11,07,38,1.50
2013,12,11,07,39,1.50
2013,12,11,07,40,1.40
2013,12,11,07,41,1.40
2013,12,11,07,42,1.40
2013,12,11,07,43,1.40
2013,12,11,07,44,1.40
2013,12,11,07,45,1.40
2013,12,11,07,46,1.40
2013,12,11,07,47,1.40
2013,12,11,07,48,1.40
2013,12,11,07,49,1.40
2013,12,11,07,50,1.40
2013,12,11,07,51,1.40
2013,12,11,07,52,1.40
2013,12,11,07,53,1.50
2013,12,11,07,54,1.50
2013,12,11,07,55,1.60
2013,12,11,07,56,1.60
2013,12,11,07,57,1.60
2013,12,11,07,58,1.60
2013,12,11,07,59,1.60
2013,12,11,08,00,1.60
2013,12,11,08,01,1.60
2013,12,11,08,02,1.60
2013,12,11,08,03,1.60
2013,12,11,08,04,1.60
2013,12,11,08,05,1.60
2013,12,11,08,06,1.60
2013,12,11,08,07,1.60
2013,12,11,08,08,1.60
2013,12,11,08,09,1.60
2013,12,11,08,10,1.60
2013,12,11,08,11,1.60
2013,12,11,08,12,1.60
2013,12,11,08,13,1.60
2013,12,11,08,14,1.60
2013,12,11,08,15,1.60
2013,12,11,08,16,1.60
2013,12,11,08,17,1.60
2013,12,11,08,18,1.60
2013,12,11,08,19,1.60
2013,12,11,08,20,1.60
2013,12,11,08,21,1.60
2013,12,11,08,22,1.60
2013,12,11,08,23,1.60
2013,12,11,08,24,1.60
2013,12,11,08,25,1.60
2013,12,11,08,26,1.60
2013,12,11,08,27,1.70
2013,12,11,08,28,1.70
2013,12,11,08,29,1.70
2013,12,11,08,30,1.70
2013,12,11,08,31,1.70
2013,12,11,08,32,1.70
2013,12,11,08,33,1.80
2013,12,11,08,34,1.80
2013,12,11,08,35,1.80
2013,12,11,08,36,1.90
2013,12,11,08,37,1.90
2013,12,11,08,38,1.90
2013,12,11,08,39,1.90
2013,12,11,08,40,2.00
2013,12,11,08,41,2.00
2013,12,11,08,42,2.00
2013,12,11,08,43,2.10
2013,12,11,08,44,2.10
2013,12,11,08,45,2.10
2013,12,11,08,46,2.10
2013,12,11,08,47,2.20
2013,12,11,08,48,2.20
2013,12,11,08,49,2.20
2013,12,11,08,50,2.20
2013,12,11,08,51,2.20
2013,12,11,08,52,2.20
2013,12,11,08,53,2.20
2013,12,11,08,54,2.20
2013,12,11,08,55,2.20
2013,12,11,08,56,2.20
2013,12,11,08,57,2.20
2013,12,11,08,58,2.30
2013,12,11,08,59,2.30
2013,12,11,09,00,2.30
2013,12,11,09,01,2.30
2013,12,11,09,02,2.30
2013,12,11,09,03,2.30
2013,12,11,09,04,2.30
2013,12,11,09,05,2.30
2013,12,11,09,06,2.30
2013,12,11,09,07,2.30
2013,12,11,09,08,2.30
2013,12,11,09,09,2.30
2013,12,11,09,10,2.30
2013,12,11,09,11,2.40
2013,12,11,09,12,2.40
2013,12,11,09,13,2.40
2013,12,11,09,14,2.40
2013,12,11,09,15,2.40
2013,12,11,09,16,2.40
2013,12,11,09,17,2.40
2013,12,11,09,18,2.50
2013,12,11,09,19,2.50
2013,12,11,09,20,2.50
2013,12,11,09,21,2.50
2013,12,11,09,22,2.50
2013,12,11,09,23,2.60
2013,12,11,09,24,2.60
2013,12,11,09,25,2.60
2013,12,11,09,26,2.60
2013,12,11,09,27,2.60
2013,12,11,09,28,2.60
2013,12,11,09,29,2.70
2013,12,11,09,30,2.70
2013,12,11,09,31,2.70
2013,12,11,09,32,2.70
2013,12,11,09,33,2.70
2013,12,11,09,34,2.70
2013,12,11,09,35,2.70
2013,12,11,09,36,2.80
2013,12,11,09,37,2.80
2013,12,11,09,38,2.80
2013,12,11,09,39,2.80
2013,12,11,09,40,2.80
2013,12,11,09,41,2.80
2013,12,11,09,42,2.80
2013,12,11,09,43,2.80
2013,12,11,09,44,2.80
2013,12,11,09,45,2.90
2013,12,11,09,46,2.90
2013,12,11,09,47,2.90
2013,12,11,09,48,2.90
2013,12,11,09,49,3.00
2013,12,11,09,50,3.00
2013,12,11,09,51,3.00
2013,12,11,09,52,3.00
2013,12,11,09,53,3.00
2013,12,11,09,54,3.00
2013,12,11,09,55,3.10
2013,12,11,09,56,3.10
2013,12,11,09,57,3.10
2013,12,11,09,58,3.10
2013,12,11,09,59,3.10
2013,12,11,10,00,3.10
2013,12,11,10,01,3.10
2013,12,11,10,02,3.10
2013,12,11,10,03,3.10
2013,12,11,10,04,3.10
2013,12,11,10,05,3.10
2013,12,11,10,06,3.10
2013,12,11,10,07,3.10
2013,12,11,10,08,3.20
2013,12,11,10,09,3.20
2013,12,11,10,10,3.20
2013,12,11,10,11,3.20
2013,12,11,10,12,3.20
2013,12,11,10,13,3.20
2013,12,11,10,14,3.20
2013,12,11,10,15,3.20
2013,12,11,10,16,3.20
2013,12,11,10,17,3.20
2013,12,11,10,18,3.30
2013,12,11,10,19,3.30
2013,12,11,10,20,3.30
2013,12,11,10,21,3.30
2013,12,11,10,22,3.30
2013,12,11,10,23,3.30
2013,12,11,10,24,3.30
2013,12,11,10,25,3.40
2013,12,11,10,26,3.40
2013,12,11,10,27,3.40
2013,12,11,10,28,3.40
2013,12,11,10,29,3.50
2013,12,11,10,30,3.50
2013,12,11,10,31,3.50
2013,12,11,10,32,3.60
2013,12,11,10,33,3.60
2013,12,11,10,34,3.60
2013,12,11,10,35,3.70
2013,12,11,10,36,3.70
2013,12,11,10,37,3.70
2013,12,11,10,38,3.70
2013,12,11,10,39,3.70
2013,12,11,10,40,3.70
2013,12,11,10,41,3.80
2013,12,11,10,42,3.80
2013,12,11,10,43,3.80
2013,12,11,10,44,3.80
2013,12,11,10,45,3.80
2013,12,11,10,46,3.80
2013,12,11,10,47,3.80
2013,12,11,10,48,3.80
2013,12,11,10,49,3.80
2013,12,11,10,50,3.80
2013,12,11,10,51,3.80
2013,12,11,10,52,3.80
2013,12,11,10,53,3.80
2013,12,11,10,54,3.80
2013,12,11,10,55,3.80
2013,12,11,10,56,3.80
2013,12,11,10,57,3.80
2013,12,11,10,58,3.80
2013,12,11,10,59,3.80
2013,12,11,11,00,3.80
2013,12,11,11,01,3.80
2013,12,11,11,02,3.80
2013,12,11,11,03,3.80
2013,12,11,11,04,3.80
2013,12,11,11,05,3.90
2013,12,11,11,06,3.90
2013,12,11,11,07,3.90
2013,12,11,11,08,3.90
2013,12,11,11,09,3.90
2013,12,11,11,10,3.90
2013,12,11,11,11,3.90
2013,12,11,11,12,3.90
2013,12,11,11,13,3.90
2013,12,11,11,14,3.90
2013,12,11,11,15,3.90
2013,12,11,11,16,3.90
2013,12,11,11,17,3.90
2013,12,11,11,18,3.90
2013,12,11,11,19,3.90
2013,12,11,11,20,3.90
2013,12,11,11,21,3.90
2013,12,11,11,22,3.90
2013,12,11,11,23,3.90
2013,12,11,11,24,3.90
2013,12,11,11,25,3.90
2013,12,11,11,26,3.90
2013,12,11,11,27,3.90
2013,12,11,11,28,4.00
2013,12,11,11,29,3.90
2013,12,11,11,30,4.00
2013,12,11,11,31,4.00
2013,12,11,11,32,4.00
2013,12,11,11,33,4.00
2013,12,11,11,34,4.00
2013,12,11,11,35,4.00
2013,12,11,11,36,4.00
2013,12,11,11,37,4.00
2013,12,11,11,38,4.00
2013,12,11,11,39,4.00
2013,12,11,11,40,4.00
2013,12,11,11,41,4.00
2013,12,11,11,42,4.00
2013,12,11,11,43,4.00
2013,12,11,11,44,4.00
2013,12,11,11,45,4.00
2013,12,11,11,46,3.90
2013,12,11,11,47,4.00
2013,12,11,11,48,3.90
2013,12,11,11,49,3.90
2013,12,11,11,50,3.90
2013,12,11,11,51,4.00
2013,12,11,11,52,3.90
2013,12,11,11,53,4.00
2013,12,11,11,54,4.00
2013,12,11,11,55,4.00
2013,12,11,11,56,4.00
2013,12,11,11,57,4.00
2013,12,11,11,58,4.00
2013,12,11,11,59,4.00
2013,12,11,12,00,4.00
2013,12,11,12,01,4.00
2013,12,11,12,02,4.00
2013,12,11,12,03,4.00
2013,12,11,12,04,4.10
2013,12,11,12,05,4.10
2013,12,11,12,06,4.10
2013,12,11,12,07,4.10
2013,12,11,12,08,4.10
2013,12,11,12,09,4.10
2013,12,11,12,10,4.10
2013,12,11,12,11,4.10
2013,12,11,12,12,4.20
2013,12,11,12,13,4.20
2013,12,11,12,14,4.20
2013,12,11,12,15,4.20
2013,12,11,12,16,4.20
2013,12,11,12,17,4.20
2013,12,11,12,18,4.20
2013,12,11,12,19,4.30
2013,12,11,12,20,4.30
2013,12,11,12,21,4.30
2013,12,11,12,22,4.30
2013,12,11,12,23,4.30
2013,12,11,12,24,4.30
2013,12,11,12,25,4.30
2013,12,11,12,26,4.30
2013,12,11,12,27,4.30
2013,12,11,12,28,4.30
2013,12,11,12,29,4.30
2013,12,11,12,30,4.30
2013,12,11,12,31,4.30
2013,12,11,12,32,4.30
2013,12,11,12,33,4.30
2013,12,11,12,34,4.30
2013,12,11,12,35,4.30
2013,12,11,12,36,4.30
2013,12,11,12,37,4.30
2013,12,11,12,38,4.30
2013,12,11,12,39,4.30
2013,12,11,12,40,4.30
2013,12,11,12,41,4.30
2013,12,11,12,42,4.30
2013,12,11,12,43,4.30
2013,12,11,12,44,4.30
2013,12,11,12,45,4.30
2013,12,11,12,46,4.30
2013,12,11,12,47,4.30
2013,12,11,12,48,4.30
2013,12,11,12,49,4.30
2013,12,11,12,50,4.30
2013,12,11,12,51,4.30
2013,12,11,12,52,4.30
2013,12,11,12,53,4.30
2013,12,11,12,54,4.30
2013,12,11,12,55,4.40
2013,12,11,12,56,4.40
2013,12,11,12,57,4.40
2013,12,11,12,58,4.40
2013,12,11,12,59,4.40
2013,12,11,13,00,4.40
2013,12,11,13,01,4.40
2013,12,11,13,02,4.40
2013,12,11,13,03,4.40
2013,12,11,13,04,4.40
2013,12,11,13,05,4.40
2013,12,11,13,06,4.30
2013,12,11,13,07,4.30
2013,12,11,13,08,4.30
2013,12,11,13,09,4.30
2013,12,11,13,10,4.30
2013,12,11,13,11,4.30
2013,12,11,13,12,4.30
2013,12,11,13,13,4.30
2013,12,11,13,14,4.30
2013,12,11,13,15,4.30
2013,12,11,13,16,4.30
2013,12,11,13,17,4.30
2013,12,11,13,18,4.30
2013,12,11,13,19,4.30
2013,12,11,13,20,4.30
2013,12,11,13,21,4.30
2013,12,11,13,22,4.30
2013,12,11,13,23,4.40
2013,12,11,13,24,4.40
2013,12,11,13,25,4.40
2013,12,11,13,26,4.40
2013,12,11,13,27,4.30
2013,12,11,13,28,4.30
2013,12,11,13,29,4.30
2013,12,11,13,30,4.30
2013,12,11,13,31,4.30
2013,12,11,13,32,4.30
2013,12,11,13,33,4.30
2013,12,11,13,34,4.30
2013,12,11,13,35,4.30
2013,12,11,13,36,4.30
2013,12,11,13,37,4.30
2013,12,11,13,38,4.30
2013,12,11,13,39,4.30
2013,12,11,13,40,4.30
2013,12,11,13,41,4.30
2013,12,11,13,42,4.30
2013,12,11,13,43,4.30
2013,12,11,13,44,4.30
2013,12,11,13,45,4.30
2013,12,11,13,46,4.30
2013,12,11,13,47,4.30
2013,12,11,13,48,4.30
2013,12,11,13,49,4.30
2013,12,11,13,50,4.30
2013,12,11,13,51,4.30
2013,12,11,13,52,4.30
2013,12,11,13,53,4.30
2013,12,11,13,54,4.30
2013,12,11,13,55,4.30
2013,12,11,13,56,4.30
2013,12,11,13,57,4.30
2013,12,11,13,58,4.30
2013,12,11,13,59,4.30
2013,12,11,14,00,4.30
2013,12,11,14,01,4.30
2013,12,11,14,02,4.30
2013,12,11,14,03,4.30
2013,12,11,14,04,4.30
2013,12,11,14,05,4.30
2013,12,11,14,06,4.30
2013,12,11,14,07,4.30
2013,12,11,14,08,4.30
2013,12,11,14,09,4.30
2013,12,11,14,10,4.30
2013,12,11,14,11,4.30
2013,12,11,14,12,4.30
2013,12,11,14,13,4.30
2013,12,11,14,14,4.30
2013,12,11,14,15,4.30
2013,12,11,14,16,4.30
2013,12,11,14,17,4.30
2013,12,11,14,18,4.30
2013,12,11,14,19,4.30
2013,12,11,14,20,4.30
2013,12,11,14,21,4.30
2013,12,11,14,22,4.30
2013,12,11,14,23,4.30
2013,12,11,14,24,4.30
2013,12,11,14,25,4.30
2013,12,11,14,26,4.30
2013,12,11,14,27,4.30
2013,12,11,14,28,4.30
2013,12,11,14,29,4.30
2013,12,11,14,30,4.30
2013,12,11,14,31,4.30
2013,12,11,14,32,4.30
2013,12,11,14,33,4.30
2013,12,11,14,34,4.30
2013,12,11,14,35,4.30
2013,12,11,14,36,4.30
2013,12,11,14,37,4.30
2013,12,11,14,38,4.30
2013,12,11,14,39,4.30
2013,12,11,14,40,4.30
2013,12,11,14,41,4.30
2013,12,11,14,42,4.30
2013,12,11,14,43,4.30
2013,12,11,14,44,4.30
2013,12,11,14,45,4.30
2013,12,11,14,46,4.30
2013,12,11,14,47,4.30
2013,12,11,14,48,4.30
2013,12,11,14,49,4.30
2013,12,11,14,50,4.30
2013,12,11,14,51,4.30
2013,12,11,14,52,4.30
2013,12,11,14,53,4.30
2013,12,11,14,54,4.30
2013,12,11,14,55,4.20
2013,12,11,14,56,4.20
2013,12,11,14,57,4.20
2013,12,11,14,58,4.20
2013,12,11,14,59,4.20
2013,12,11,15,00,4.20
2013,12,11,15,01,4.20
2013,12,11,15,02,4.20
2013,12,11,15,03,4.20
2013,12,11,15,04,4.20
2013,12,11,15,05,4.20
2013,12,11,15,06,4.20
2013,12,11,15,07,4.20
2013,12,11,15,08,4.20
2013,12,11,15,09,4.20
2013,12,11,15,10,4.20
2013,12,11,15,11,4.20
2013,12,11,15,12,4.10
2013,12,11,15,13,4.10
2013,12,11,15,14,4.10
2013,12,11,15,15,4.10
2013,12,11,15,16,4.10
2013,12,11,15,17,4.10
2013,12,11,15,18,4.10
2013,12,11,15,19,4.10
2013,12,11,15,20,4.10
2013,12,11,15,21,4.00
2013,12,11,15,22,4.00
2013,12,11,15,23,4.00
2013,12,11,15,24,4.00
2013,12,11,15,25,3.90
2013,12,11,15,26,3.90
2013,12,11,15,27,3.90
2013,12,11,15,28,3.90
2013,12,11,15,29,3.90
2013,12,11,15,30,3.90
2013,12,11,15,31,3.90
2013,12,11,15,32,3.90
2013,12,11,15,33,3.90
2013,12,11,15,34,3.90
2013,12,11,15,35,3.80
2013,12,11,15,36,3.80
2013,12,11,15,37,3.80
2013,12,11,15,38,3.80
2013,12,11,15,39,3.80
2013,12,11,15,40,3.70
2013,12,11,15,41,3.70
2013,12,11,15,42,3.70
2013,12,11,15,43,3.70
2013,12,11,15,44,3.60
2013,12,11,15,45,3.60
2013,12,11,15,46,3.60
2013,12,11,15,47,3.60
2013,12,11,15,48,3.50
2013,12,11,15,49,3.50
2013,12,11,15,50,3.40
2013,12,11,15,51,3.40
2013,12,11,15,52,3.40
2013,12,11,15,53,3.40
2013,12,11,15,54,3.30
2013,12,11,15,55,3.30
2013,12,11,15,56,3.30
2013,12,11,15,57,3.30
2013,12,11,15,58,3.20
2013,12,11,15,59,3.20
2013,12,11,16,00,3.20
2013,12,11,16,01,3.20
2013,12,11,16,02,3.10
2013,12,11,16,03,3.10
2013,12,11,16,04,3.10
2013,12,11,16,05,3.10
2013,12,11,16,06,3.00
2013,12,11,16,07,3.00
2013,12,11,16,08,2.90
2013,12,11,16,09,2.90
2013,12,11,16,10,2.90
2013,12,11,16,11,2.90
2013,12,11,16,12,2.90
2013,12,11,16,13,2.80
2013,12,11,16,14,2.80
2013,12,11,16,15,2.80
2013,12,11,16,16,2.80
2013,12,11,16,17,2.80
2013,12,11,16,18,2.70
2013,12,11,16,19,2.70
2013,12,11,16,20,2.70
2013,12,11,16,21,2.70
2013,12,11,16,22,2.60
2013,12,11,16,23,2.60
2013,12,11,16,24,2.60
2013,12,11,16,25,2.60
2013,12,11,16,26,2.50
2013,12,11,16,27,2.50
2013,12,11,16,28,2.50
2013,12,11,16,29,2.50
2013,12,11,16,30,2.40
2013,12,11,16,31,2.40
2013,12,11,16,32,2.40
2013,12,11,16,33,2.40
2013,12,11,16,34,2.40
2013,12,11,16,35,2.30
2013,12,11,16,36,2.30
2013,12,11,16,37,2.30
2013,12,11,16,38,2.30
2013,12,11,16,39,2.20
2013,12,11,16,40,2.20
2013,12,11,16,41,2.20
2013,12,11,16,42,2.20
2013,12,11,16,43,2.10
2013,12,11,16,44,2.10
2013,12,11,16,45,2.10
2013,12,11,16,46,2.00
2013,12,11,16,47,2.00
2013,12,11,16,48,1.90
2013,12,11,16,49,1.90
2013,12,11,16,50,1.90
2013,12,11,16,51,1.90
2013,12,11,16,52,1.90
2013,12,11,16,53,1.80
2013,12,11,16,54,1.80
2013,12,11,16,55,1.80
2013,12,11,16,56,1.80
2013,12,11,16,57,1.80
2013,12,11,16,58,1.80
2013,12,11,16,59,1.70
2013,12,11,17,00,1.70
2013,12,11,17,01,1.70
2013,12,11,17,02,1.70
2013,12,11,17,03,1.70
2013,12,11,17,04,1.70
2013,12,11,17,05,1.70
2013,12,11,17,06,1.70
2013,12,11,17,07,1.70
2013,12,11,17,08,1.70
2013,12,11,17,09,1.70
2013,12,11,17,10,1.70
2013,12,11,17,11,1.60
2013,12,11,17,12,1.60
2013,12,11,17,13,1.60
2013,12,11,17,14,1.60
2013,12,11,17,15,1.60
2013,12,11,17,16,1.60
2013,12,11,17,17,1.60
2013,12,11,17,18,1.60
2013,12,11,17,19,1.60
2013,12,11,17,20,1.50
2013,12,11,17,21,1.50
2013,12,11,17,22,1.50
2013,12,11,17,23,1.50
2013,12,11,17,24,1.50
2013,12,11,17,25,1.50
2013,12,11,17,26,1.40
2013,12,11,17,27,1.40
2013,12,11,17,28,1.40
2013,12,11,17,29,1.40
2013,12,11,17,30,1.40
2013,12,11,17,31,1.40
2013,12,11,17,32,1.40
2013,12,11,17,33,1.40
2013,12,11,17,34,1.40
2013,12,11,17,35,1.40
2013,12,11,17,36,1.40
2013,12,11,17,37,1.40
2013,12,11,17,38,1.40
2013,12,11,17,39,1.40
2013,12,11,17,40,1.40
2013,12,11,17,41,1.40
2013,12,11,17,42,1.30
2013,12,11,17,43,1.30
2013,12,11,17,44,1.30
2013,12,11,17,45,1.30
2013,12,11,17,46,1.30
2013,12,11,17,47,1.30
2013,12,11,17,48,1.30
2013,12,11,17,49,1.30
2013,12,11,17,50,1.30
2013,12,11,17,51,1.30
2013,12,11,17,52,1.30
2013,12,11,17,53,1.30
2013,12,11,17,54,1.30
2013,12,11,17,55,1.30
2013,12,11,17,56,1.30
2013,12,11,17,57,1.30
2013,12,11,17,58,1.40
2013,12,11,17,59,1.40
2013,12,11,18,00,1.40
2013,12,11,18,01,1.40
2013,12,11,18,02,1.40
2013,12,11,18,03,1.40
2013,12,11,18,04,1.40
2013,12,11,18,05,1.30
2013,12,11,18,06,1.30